ZHUHAI-1 03D (44538 NORAD) Tracking and Keplerian Element Data

This shows tracking and keplerian element data for the satellite.

Feedback or suggestion? Click here.




ElementValue
Catalog44538
NameZHUHAI-1 03D
Epoch Orbit435
Epoch Day290.91759284
Epoch Year2019
RAAN40.9848
Inclination97.3965
Eccentricity0.0009419
Argument of Perigee205.3071
Mean Anonmoly294.2161
Mean Motion15.17710168
Decay Rate8.31E-06
L11 44538U 19060E 19290.91759284 .00000831 00000-0 44497-4 0 9990
L22 44538 97.3965 40.9848 0009419 205.3071 294.2161 15.17710168 4353

Live tracking and technical data element details for ZHUHAI-1 03D (NORAD 44538). ZHUHAI-1 03D can be tracked NOW for your location showing map with azimuth and elevation plus other details from your city location.

Track the satellite on the map from your city or location and see movement details for azimuth, elevation, latitude, longitude, range, height, and movement on the map or in text.







IsCatalogInMostPopularTable: catalog: 44538, numindb: 14
Update: records affected: 1



GetName: 44538 ZHUHAI-1 03D

Hit Count: updated at: Thu, 05 Dec 2019 18:19:41 GMT